Weather in Shopino

Russia / Kaluga Oblast     54°29′40″N   36°09′30″E
temp.,
°C
wind,
m/s
gust,
m/s
humid.,
%
clouds,
%
prec.,
mm/h
press.,
hPa
HPBL,
m
16 june, wed
wed1600:00+16nnw22942 0.0 101119
03:00+14nnw23950 0.0 101142
06:00+15nw26930 0.0 1012171
09:00+20nnw456932 0.0 1013590
12:00+22nnw455889 0.0 10141295
15:00+23n455479 0.0 10141944
18:00+22nne46583 0.0 1015751
21:00+15n38774 0.0 1017142
17 june, thu
thu1700:00+13ne247758 0.0 101965
03:00+11ne228296 0.0 102122
06:00+13nne24785 0.0 1023116
09:00+19ne24560 0.0 1023578
12:00+22ne34425 0.0 10241623
15:00+24nne33375 0.0 10241796
18:00+23ene13540 0.0 1024984
21:00+16se22800 0.0 102515
18 june, fri
fri1800:00+13ssw00845 0.0 102610
03:00+12e11860 0.0 102710
06:00+15ne01805 0.0 102839
09:00+21e12592 0.0 1028488
12:00+24ese224717 0.0 10281499
15:00+25se22470 0.0 10271724
18:00+24se22605 0.0 1027927
21:00+18s22845 0.0 102725
19 june, sat
sat1900:00+15s22905 0.0 102816
03:00+14ssw229455 0.0 102914
06:00+16ssw12884 0.0 102984
09:00+21ssw12650 0.0 1029562
12:00+24ssw23501 0.0 10281283
15:00+25ssw33470 0.0 10271499
18:00+24ssw33600 0.0 1026810
21:00+18s228462 0.0 102712
20 june, sun
sun2000:00+16s22914 0.0 102712
03:00+15s22940 0.0 102714
06:00+17s12895 0.0 102780
09:00+22ssw226851 0.0 1027610
12:00+25s23515 0.0 10251442
15:00+26ssw334758 0.0 10241615
18:00+25sw236140 0.0 1023954
21:00+19s12855 0.0 102311